Theta_e
313 311 309 308 308 307 305 302 300 300 301 302 304 307 309 309 309 308 306 304 301 300 301 300 299 298 298 298 298 299 300 300 301 303 305 307 307 307 307 307 307 306 307 307 304 300 298 297 296 296 295 295
314 312 311 311 310 309 308 306 303 300 299 297 297 298 299 301 301 301 300 298 298 297 298 298 298 297 298 298 297 297 298 300 301 301 303 304 305 306 306 306 306 305 304 303 301 298 297 296 296 296 295 295
314 313 313 313 311 310 310 309 307 304 301 299 297 295 294 295 295 296 296 296 296 296 297 297 297 297 297 297 297 297 297 298 299 299 300 300 301 303 304 304 305 303 301 299 298 297 296 296 296 296 295 295
312 312 313 313 312 311 311 311 310 308 304 301 298 297 295 294 294 295 296 296 296 296 296 296 297 297 297 297 297 297 297 297 297 298 298 298 298 299 300 300 300 300 298 297 296 296 296 296 296 295 295 295
311 311 313 313 313 312 311 311 311 310 307 304 301 299 297 295 294 294 295 295 296 297 298 298 298 298 298 298 298 297 297 297 297 297 297 297 297 297 297 297 297 297 297 296 296 296 296 295 296 296 296 296
312 312 313 313 313 312 311 311 310 309 308 306 303 301 299 298 297 295 295 296 298 299 300 301 301 300 299 298 298 297 297 297 297 297 297 297 297 296 296 296 296 296 296 296 296 296 296 296 297 297 297 296
313 313 313 312 312 311 310 310 309 308 307 306 305 303 302 301 299 298 297 298 299 300 301 301 301 300 299 298 297 297 297 298 298 297 297 297 297 296 296 296 296 296 296 296 296 295 296 297 298 298 298 297
313 313 312 311 311 310 309 309 308 307 306 306 305 304 303 302 301 300 298 298 298 298 299 299 299 298 298 298 298 298 299 298 298 298 298 298 297 297 296 297 297 297 297 297 297 297 297 298 298 298 298 298
313 313 312 312 311 310 310 309 308 307 306 306 305 304 303 303 302 301 300 298 298 297 298 298 298 298 299 299 299 299 299 299 299 299 299 298 298 298 298 298 298 298 298 298 298 298 298 298 298 298 298 298
313 313 312 312 312 312 311 310 309 308 307 306 305 304 303 303 303 302 301 300 299 299 298 299 299 299 299 299 299 299 299 299 299 300 299 299 299 299 299 299 299 299 299 299 298 298 298 298 298 298 297 297
313 313 313 313 312 312 312 311 310 310 309 308 306 305 303 303 303 302 302 300 300 299 299 299 299 299 300 300 299 299 299 299 299 299 299 299 299 298 299 299 298 298 298 298 298 298 298 298 297 297 297 296
314 313 313 313 313 312 312 311 311 310 309 308 307 306 304 303 303 302 302 301 300 299 299 299 299 299 299 299 299 299 299 298 298 298 298 298 298 298 298 298 298 297 297 298 298 297 297 297 297 297 297 297
314 314 313 313 313 313 312 312 311 310 310 309 308 306 305 304 303 303 302 302 301 300 300 299 299 299 299 299 299 299 299 299 298 298 298 297 297 297 297 297 297 297 297 297 297 297 297 297 297 297 297 297
314 314 314 314 313 313 313 312 312 311 310 309 308 307 306 305 304 303 303 302 302 301 301 300 300 299 299 299 299 299 299 299 299 298 298 298 297 297 297 297 297 297 297 297 297 297 297 297 297 297 297 297
315 314 314 314 313 313 313 312 312 311 310 309 308 307 306 306 305 304 304 303 303 302 302 301 301 301 300 300 300 300 299 299 299 299 298 298 298 297 297 297 297 297 296 296 296 296 296 296 296 296 296 297
314 314 314 313 313 313 312 312 311 311 310 309 308 307 307 306 306 305 305 304 304 303 303 302 302 301 301 301 301 300 300 300 299 299 299 299 298 298 298 298 297 297 297 296 296 296 296 296 296 296 296 296
313 313 313 312 312 312 311 311 310 310 309 308 308 307 306 306 305 305 304 304 303 303 302 302 302 301 301 301 301 300 300 300 300 300 299 299 299 299 298 298 298 297 297 297 297 297 296 296 296 296 296 296
311 310 310 310 310 309 309 308 308 308 307 307 306 306 305 305 305 304 303 302 302 301 301 301 301 301 301 300 300 300 300 300 300 300 300 300 299 299 298 298 298 298 297 297 297 297 297 297 296 296 296 296
307 307 307 307 307 307 307 307 307 306 306 305 305 305 304 303 302 301 301 300 299 299 299 299 299 299 299 299 299 299 299 299 299 299 300 299 299 299 299 298 298 298 298 298 297 297 297 297 297 297 297 297
306 307 307 307 307 307 307 307 306 306 305 304 304 303 302 300 299 299 298 297 297 297 297 298 298 298 298 298 298 298 298 298 298 298 298 298 298 298 298 298 297 297 297 298 297 297 297 297 297 297 297 297
306 307 306 307 307 306 306 305 305 304 303 303 302 300 299 298 297 296 295 295 294 294 295 295 296 296 296 295 295 295 296 296 296 296 296 296 296 296 296 296 296 296 297 297 297 297 297 297 297 297 297 297
305 305 305 305 305 305 304 303 303 303 301 300 299 297 296 295 293 292 291 290 290 291 291 292 292 292 292 292 292 292 293 293 293 293 293 293 293 293 294 294 295 295 295 295 295 295 296 296 296 296 296 296
304 304 304 304 304 304 303 303 302 300 299 297 295 294 293 292 289 287 286 286 286 287 287 288 288 288 288 288 288 289 290 290 290 290 290 290 290 290 291 291 292 292 292 292 292 293 294 294 295 295 295 295
302 302 302 303 304 304 303 301 299 297 295 294 292 291 290 288 286 284 283 283 283 284 284 284 284 283 284 284 285 286 287 287 288 288 287 287 287 287 287 288 289 289 289 289 290 291 291 291 292 292 293 293
298 298 299 301 302 302 300 297 295 293 291 290 289 289 288 286 284 283 281 281 281 281 281 280 280 280 281 281 282 283 284 285 284 283 282 282 283 283 284 285 286 286 286 287 288 288 288 289 289 290 291 292
293 294 295 296 297 298 296 293 291 290 288 287 286 286 286 284 282 281 279 279 279 279 278 278 278 278 279 279 280 281 282 281 280 279 279 280 280 280 281 282 283 283 283 285 285 285 286 287 288 289 290 290
290 291 292 293 293 294 292 289 288 287 286 285 284 284 284 282 280 279 278 277 277 277 277 276 276 277 277 277 278 279 279 278 278 278 278 278 279 279 279 279 280 280 281 281 281 282 283 284 285 287 287 285
288 289 291 291 291 291 289 287 285 285 284 282 282 282 282 281 279 278 277 275 275 276 276 275 275 275 275 276 277 277 276 276 276 276 277 277 277 277 277 278 278 278 278 278 279 280 280 281 282 283 282 280
286 288 289 289 289 289 287 285 283 283 282 281 280 280 280 279 277 276 276 274 274 275 275 274 274 274 274 274 275 275 274 275 275 275 276 275 275 276 276 276 277 276 277 277 278 278 278 278 279 279 279 278
285 285 285 285 285 285 283 282 281 280 280 279 278 278 278 278 276 275 275 274 273 274 274 274 273 273 273 273 274 273 273 273 273 274 274 273 274 274 274 274 275 275 276 275 275 276 276 276 277 277 277 278
283 282 281 281 280 280 280 280 279 278 278 278 277 276 276 276 275 274 274 274 273 273 273 273 273 273 272 272 273 272 272 273 273 273 273 272 272 273 273 273 273 274 274 273 273 274 274 274 276 276 276 276
Wind_Speed
9 9 10 10 11 11 11 12 13 14 14 15 15 15 15 16 16 16 17 18 19 20 20 20 21 21 21 21 21 21 20 20 20 19 18 18 18 18 18 19 19 19 19 20 21 23 24 24 25 24 24 25
10 10 10 11 11 11 12 13 14 15 15 16 17 18 19 19 19 20 20 21 21 22 22 22 23 24 23 23 23 23 23 23 22 22 21 21 21 21 21 21 21 22 22 23 24 26 26 26 26 27 26 26
11 12 12 12 12 12 13 14 15 15 16 17 17 18 19 20 21 21 22 22 22 23 24 24 25 25 25 25 25 26 26 25 25 25 25 25 24 24 24 23 23 24 26 27 27 28 28 28 28 28 28 29
12 14 15 15 14 14 15 15 15 15 16 17 17 18 19 20 21 22 23 23 23 24 25 25 26 26 27 27 27 28 28 28 28 28 28 28 28 27 27 27 27 28 29 30 30 30 30 31 31 31 31 31
12 15 16 17 16 16 16 16 16 16 16 16 17 18 19 20 21 22 23 23 23 24 24 25 26 26 26 27 27 28 29 30 30 31 31 31 31 30 30 30 31 31 32 33 33 32 32 32 31 31 31 30
14 16 17 17 17 17 16 16 16 16 16 16 17 17 17 19 20 21 21 20 20 20 21 22 24 26 27 28 29 29 30 31 31 32 33 33 33 33 33 32 32 33 34 35 35 34 32 30 30 29 29 29
15 16 15 15 15 15 16 16 17 17 17 17 17 16 17 18 19 18 18 17 17 18 20 22 24 27 29 30 30 30 30 31 32 32 33 33 34 34 33 33 33 35 35 35 34 32 29 27 28 28 27 27
14 14 13 12 12 13 13 13 15 17 17 17 16 16 16 17 18 17 17 18 19 20 23 25 26 27 28 28 28 27 27 29 29 29 30 31 31 31 31 31 31 32 32 32 30 28 26 27 28 27 26 25
13 12 11 11 11 12 12 12 13 15 16 16 17 16 17 17 18 18 19 20 20 21 23 23 24 25 25 25 26 26 25 26 26 26 27 27 27 27 27 27 27 28 27 27 26 25 25 27 28 28 27 26
12 12 12 13 12 12 12 12 13 14 14 15 15 16 17 18 18 19 19 19 19 20 20 20 22 23 23 23 25 25 24 26 26 25 25 24 24 25 25 25 26 26 25 24 25 26 27 28 29 29 30 30
12 12 13 13 12 12 13 13 13 14 15 15 15 15 16 18 19 18 18 18 19 19 20 20 21 22 22 22 23 23 23 25 26 26 26 25 25 26 26 27 28 28 28 28 29 30 32 33 33 34 34 34
13 13 12 12 12 13 13 14 15 15 14 14 15 16 16 17 18 18 18 18 19 20 20 21 22 22 23 23 24 24 24 25 27 27 28 28 28 28 28 29 29 29 30 30 31 32 33 34 35 35 35 35
12 12 12 11 12 12 13 13 15 15 14 15 15 16 15 16 17 18 19 20 20 20 21 22 23 23 24 25 25 25 25 26 27 27 28 28 28 29 29 29 29 29 30 30 30 32 33 33 33 34 34 34
10 11 12 12 12 12 13 13 13 13 14 16 15 15 15 15 16 18 20 21 21 21 22 23 23 24 25 25 26 25 26 26 27 27 28 28 28 28 29 29 29 30 31 31 31 32 33 33 34 34 34 35
10 11 11 12 12 13 13 13 13 13 14 15 15 15 15 16 17 18 19 20 21 22 23 24 25 25 26 26 26 26 27 27 27 28 29 29 29 29 30 31 32 32 33 33 33 33 33 34 35 35 35 36
10 11 11 11 12 12 13 13 13 13 14 15 15 15 15 17 17 17 17 18 20 22 24 25 25 26 27 27 27 27 27 27 28 29 30 30 30 31 32 33 33 33 34 34 35 35 35 35 36 36 36 36
10 11 11 11 12 13 13 13 13 14 15 16 16 16 16 17 17 17 18 19 20 22 24 24 25 26 26 27 27 27 28 28 29 29 29 28 28 29 30 31 31 31 32 33 33 33 33 33 33 34 35 35
11 11 12 12 12 12 13 13 13 14 15 15 16 16 15 15 16 17 18 19 21 22 23 24 24 25 25 26 27 28 28 29 29 29 28 27 27 28 29 30 30 30 31 31 31 31 31 31 31 32 33 33
14 14 13 13 13 14 14 14 13 13 14 14 14 14 13 16 18 18 18 19 21 22 22 23 24 24 25 26 27 28 27 27 28 28 28 27 28 29 28 28 29 29 30 30 30 31 31 31 32 32 32 32
17 16 15 15 15 15 16 15 14 14 15 15 14 15 17 20 20 19 19 21 22 23 23 23 24 24 25 26 27 27 27 27 27 27 28 27 27 28 27 27 28 29 30 31 31 30 30 31 31 32 32 32
16 16 15 15 15 16 16 16 15 15 17 17 17 19 20 20 21 22 22 23 22 23 23 23 23 24 24 25 26 26 26 25 26 27 28 28 27 28 28 28 28 29 30 31 32 31 31 31 31 32 32 32
16 15 15 15 14 15 16 16 17 17 18 21 22 23 22 21 23 25 24 24 24 24 24 23 23 24 25 25 25 25 25 25 25 27 28 29 28 27 27 27 27 27 29 30 30 31 30 30 30 30 30 31
19 18 18 18 17 17 18 19 20 22 24 25 26 25 24 25 27 28 28 28 26 26 26 25 25 25 26 26 26 25 25 26 26 27 27 27 27 27 26 26 27 28 30 31 31 30 30 29 28 28 28 29
24 24 23 22 21 20 21 22 24 26 27 27 28 27 26 28 29 29 31 30 27 27 27 26 26 26 26 27 27 26 26 27 27 27 27 26 27 28 27 26 25 27 30 31 30 29 29 28 28 29 30 31
27 27 26 24 24 22 23 26 27 27 28 27 27 27 26 28 28 28 32 32 28 28 28 28 29 28 28 28 27 27 27 27 28 29 30 29 27 27 27 26 24 28 31 27 23 23 26 27 27 26 28 29
28 26 26 25 25 24 25 26 27 26 26 25 25 26 25 27 27 28 33 33 30 30 30 30 31 29 29 28 28 27 26 27 30 31 31 29 27 25 25 24 24 29 28 22 20 19 19 19 19 20 20 19
27 26 25 24 24 24 23 24 24 22 23 24 25 26 25 26 28 28 32 35 33 30 30 31 31 29 28 28 27 27 26 27 29 29 29 28 27 26 24 22 23 27 25 23 24 18 11 10 12 13 10 18
26 25 24 23 22 21 19 21 22 22 23 25 27 27 26 26 29 28 29 35 34 28 28 30 30 28 28 28 27 26 26 27 28 28 28 28 27 27 26 24 23 24 25 25 22 14 7 7 9 8 8 17
27 27 26 25 24 23 22 23 26 27 27 28 29 28 26 26 29 28 27 32 33 28 27 29 29 29 29 27 27 27 26 26 27 27 27 28 27 26 26 25 23 23 24 24 21 16 9 7 5 6 12 14
27 28 28 27 27 26 24 24 26 27 25 25 27 27 25 25 28 29 28 29 32 30 28 28 29 29 29 28 28 28 27 26 28 28 27 30 29 25 26 25 23 23 23 22 22 20 17 13 10 11 14 11
28 27 27 27 25 23 22 21 21 22 22 22 24 26 24 24 26 28 28 28 31 31 29 29 30 29 30 29 28 29 29 28 29 29 27 29 29 25 26 25 23 22 23 23 21 21 22 21 19 19 17 11
Wind_Direction
298 299 301 304 309 309 307 301 291 282 276 271 268 265 265 265 265 267 268 271 273 274 274 273 274 276 277 278 279 281 283 284 285 285 283 282 282 282 282 283 283 283 282 281 284 289 290 291 292 293 293 293
295 298 300 304 307 308 308 305 300 292 283 278 274 271 269 268 270 273 275 275 275 276 276 277 277 279 280 281 281 281 282 283 284 285 284 283 282 282 282 282 282 283 284 284 285 288 289 290 290 290 290 289
300 301 304 306 306 306 307 308 306 301 293 286 281 279 277 275 276 277 278 277 276 277 277 279 279 280 281 282 282 281 281 282 283 284 284 285 284 283 283 283 282 283 285 286 287 287 289 289 289 288 285 285
290 295 303 306 306 304 304 307 308 308 303 294 288 285 283 281 280 279 279 280 280 280 280 280 279 280 281 281 281 281 282 281 282 282 284 285 285 285 283 284 283 283 285 285 287 287 287 288 287 285 282 282
274 287 298 302 303 303 304 307 309 312 311 306 298 291 288 285 284 283 284 285 286 287 287 285 283 281 281 282 282 282 283 282 282 282 283 284 285 284 284 284 284 283 284 285 286 286 286 286 283 281 280 281
279 287 296 302 304 306 309 311 311 313 316 316 312 303 296 292 292 292 293 293 293 292 289 286 284 285 286 287 287 286 285 284 284 283 283 284 284 284 284 283 281 282 283 285 285 286 286 283 278 277 279 280
287 294 301 306 307 309 310 312 312 313 316 319 319 313 304 298 297 296 295 292 288 282 277 276 279 283 287 289 290 289 288 287 286 285 284 284 284 284 283 281 280 281 283 284 285 285 283 277 274 275 278 278
282 292 298 300 298 299 301 305 307 310 314 315 315 309 300 296 294 291 286 283 279 275 276 279 282 286 290 292 293 292 291 291 290 289 288 287 287 285 284 282 282 283 284 285 284 281 276 273 274 275 276 275
275 280 282 282 282 284 286 287 291 298 302 305 307 304 299 296 294 293 291 288 285 283 285 287 288 290 293 294 294 294 293 293 292 291 291 292 290 287 286 285 284 284 283 282 279 273 268 269 272 274 274 273
273 272 275 277 280 279 279 283 288 294 296 298 301 300 299 297 296 298 299 297 294 294 294 292 290 289 291 290 291 293 293 292 292 292 293 292 289 287 286 285 285 284 282 279 274 271 268 267 268 268 269 268
279 276 277 280 282 278 278 284 290 294 298 300 300 298 295 294 296 299 301 300 297 297 296 294 293 292 292 290 288 288 287 288 289 288 288 286 284 283 281 280 281 280 277 275 273 272 271 270 269 268 268 268
292 292 287 284 283 283 287 291 294 299 301 300 301 301 298 295 296 298 299 299 299 299 297 295 295 294 293 291 290 288 286 285 284 283 283 283 282 281 280 280 279 278 276 275 274 274 273 273 272 271 270 270
300 304 302 298 294 293 295 297 301 304 306 306 306 306 304 301 301 301 301 303 304 303 301 300 299 298 296 295 294 293 290 288 286 285 284 284 283 283 283 282 280 280 278 277 276 275 274 273 273 273 272 272
309 309 310 312 310 308 307 307 308 308 310 315 315 313 310 307 306 307 307 309 310 310 308 307 306 304 302 300 300 298 296 294 292 289 287 285 284 284 284 283 282 282 280 279 276 275 274 273 273 272 271 272
322 323 322 322 320 318 318 317 316 316 319 321 321 321 320 316 315 314 313 314 317 319 318 316 314 312 309 307 305 304 300 298 295 293 290 288 286 285 284 284 284 282 280 279 276 274 273 273 273 272 271 270
337 338 336 334 335 334 333 331 329 329 331 333 335 335 335 335 335 333 330 328 327 327 325 322 320 317 315 313 311 310 306 303 300 296 293 290 288 287 287 286 284 282 279 277 276 275 274 273 273 271 270 269
348 347 344 347 349 347 345 345 346 345 345 346 348 350 351 351 350 348 346 341 336 332 329 326 324 320 319 318 318 317 315 312 308 304 299 296 294 293 293 291 289 288 283 280 279 277 276 275 273 272 271 269
8 5 4 6 5 2 1 2 2 359 359 359 359 1 0 352 346 346 346 342 338 335 333 331 328 325 324 323 323 322 320 318 314 311 307 303 302 300 299 297 295 295 291 289 287 286 285 283 281 279 276 273
33 30 29 29 27 23 22 22 21 15 13 14 13 12 3 355 354 352 350 347 345 342 339 336 333 330 329 328 327 326 324 321 318 316 312 310 308 305 303 302 300 298 296 295 293 292 293 291 291 289 286 282
34 32 31 30 27 25 27 29 28 25 25 27 24 16 8 8 10 7 2 359 355 352 347 343 340 337 335 334 333 332 330 328 326 324 321 320 318 315 314 313 311 308 305 302 299 298 296 295 295 294 293 291
28 26 27 28 28 29 33 34 33 32 32 33 27 22 20 20 19 14 9 3 360 359 354 349 346 342 340 339 338 337 336 334 333 333 333 331 329 327 324 321 317 314 311 307 304 302 299 297 296 294 293 292
28 29 32 33 35 38 39 39 38 37 37 36 32 29 25 18 16 12 6 2 5 6 360 356 352 348 346 344 343 341 339 339 337 337 337 335 333 332 329 327 323 320 317 313 310 308 305 302 298 296 295 294
26 27 30 29 31 34 37 40 43 44 42 38 33 27 18 14 16 12 8 9 12 10 5 2 358 354 353 351 349 347 344 343 341 339 339 338 337 335 331 329 326 324 322 318 314 311 307 305 304 301 299 299
23 18 18 20 21 23 34 42 44 43 39 34 30 24 15 15 18 13 10 13 15 14 10 6 1 359 359 357 355 352 349 348 347 349 349 347 345 340 336 334 332 330 328 321 315 312 309 306 303 300 295 294
23 18 15 14 16 23 39 43 38 35 32 29 29 27 18 17 18 13 12 16 19 18 14 9 7 7 4 2 360 356 354 354 355 357 356 353 350 347 343 339 340 342 337 329 323 320 316 309 304 300 297 294
26 26 23 21 25 33 41 40 36 33 30 27 30 32 25 18 18 14 13 18 23 21 17 13 12 11 6 4 3 0 359 359 358 358 358 356 352 350 346 342 344 347 344 337 333 330 318 312 312 307 303 310
28 31 34 34 37 40 38 35 36 37 32 27 29 33 29 19 18 17 14 20 25 22 17 15 13 11 7 5 5 3 1 1 1 360 359 358 355 351 349 346 347 350 352 345 337 333 323 322 323 311 326 340
33 35 41 41 43 46 42 34 31 32 29 25 26 30 30 21 19 22 19 21 24 20 14 15 13 10 8 7 7 6 4 2 2 1 358 359 358 354 350 346 348 353 355 351 345 341 326 324 327 319 352 340
39 37 39 36 34 36 34 28 24 23 20 19 22 25 27 22 20 25 24 21 21 18 15 14 13 12 11 9 10 9 8 5 4 2 1 2 360 359 354 346 347 351 353 356 356 355 345 328 330 324 332 325
45 42 41 38 33 29 26 24 22 20 17 15 18 21 22 21 21 23 23 20 19 18 16 14 13 14 13 11 11 10 9 7 6 4 4 5 2 360 358 353 349 349 353 359 357 356 354 337 326 322 326 327
48 46 44 44 42 36 32 28 22 19 19 17 18 21 21 20 20 21 22 20 18 19 18 15 15 15 14 14 12 10 10 8 5 5 5 6 4 360 358 357 353 349 355 357 352 355 352 340 335 334 333 333